Weather History for KLNP - December, 2011

Change the Weather History Date:

Wednesday, December 21, 2011

  Actual Average Record
Temperature  
Mean Temperature 54 °F -  
Max Temperature 57 °F 39 °F 68 °F (2013)
Min Temperature 51 °F 23 °F 6 °F (2003)
Degree Days  
Heating Degree Days 11    
Growing Degree Days 4 (Base 50)    
Moisture  
Dew Point 49 °F    
Average Humidity 81    
Maximum Humidity 100    
Minimum Humidity 72    
Precipitation  
Precipitation 0.00 in - - ()
Sea Level Pressure  
Sea Level Pressure 29.94 in    
Wind  
Wind Speed 12 mph (SSW)    
Max Wind Speed 22 mph    
Max Gust Speed 32 mph    
Visibility 8 miles    
Events      
Averages and records for this station are not official NWS values.
T = Trace of Precipitation, MM = Missing Value Source: NWS Daily Summary

Daily Weather History Graph

Daily Weather History Graph

Search for Another Location

Airport or City:

Trip Planner

Search our weather history database for the weather conditions in past years. The results will help you decide how hot, cold, wet, or windy it might be!

Date:

Astronomy

Dec. 21, 2011 Rise Set
Actual Time 7:39 AM EST 5:16 PM EST
Civil Twilight 7:10 AM EST 5:45 PM EST
Nautical Twilight 6:37 AM EST 6:18 PM EST
Astronomical Twilight 6:06 AM EST 6:50 PM EST
Moon 4:12 AM EST (12/21) 2:34 PM EST (12/21)
Length of Visible Light 10h 35m
Length of Day
9h 37m
Waning Crescent, 12% of the Moon is Illuminated
Dec 21
Waning Crescent
Dec 24
New
Jan 1
First Quarter
Jan 9
Full
Jan 16
Last Quarter

Hourly Weather History & Observations

Time (EST) Temp. Dew Point Humidity Pressure Visibility Wind Dir Wind Speed Gust Speed Precip Events Conditions
12:15 AM 55.4 °F 46.4 °F 72% 30.04 in 10.0 mi South 13.8 mph 23.0 mph N/A   Unknown
12:35 AM 55.4 °F 46.4 °F 72% 30.04 in 10.0 mi South 17.3 mph 21.9 mph N/A   Unknown
12:55 AM 55.4 °F 46.4 °F 72% 30.03 in 10.0 mi South 6.9 mph - N/A   Unknown
1:15 AM 55.4 °F 46.4 °F 72% 30.03 in 10.0 mi South 8.1 mph - N/A   Unknown
1:35 AM 55.4 °F 46.4 °F 72% 30.01 in 10.0 mi SSE 6.9 mph 17.3 mph N/A   Unknown
1:55 AM 53.6 °F 46.4 °F 77% 30.03 in 10.0 mi South 9.2 mph 19.6 mph N/A   Unknown
2:15 AM 55.4 °F 46.4 °F 72% 30.02 in 10.0 mi South 13.8 mph 23.0 mph N/A   Unknown
2:35 AM 55.4 °F 46.4 °F 72% 30.02 in 10.0 mi South 16.1 mph 23.0 mph N/A   Unknown
2:55 AM 53.6 °F 46.4 °F 77% 30.01 in 10.0 mi South 17.3 mph 23.0 mph N/A   Unknown
3:15 AM 53.6 °F 46.4 °F 77% 29.98 in 10.0 mi SSE 13.8 mph 24.2 mph N/A   Unknown
3:35 AM 53.6 °F 46.4 °F 77% 29.98 in 10.0 mi South 12.7 mph 21.9 mph N/A   Unknown
3:55 AM 53.6 °F 46.4 °F 77% 29.96 in 10.0 mi SE 9.2 mph - N/A   Unknown
4:15 AM 53.6 °F 46.4 °F 77% 29.97 in 10.0 mi SSW 6.9 mph - N/A   Unknown
4:35 AM 55.4 °F 46.4 °F 72% 29.96 in 10.0 mi South 12.7 mph 20.7 mph N/A   Unknown
4:55 AM 53.6 °F 46.4 °F 77% 29.96 in 10.0 mi South 11.5 mph - N/A   Unknown
5:15 AM 53.6 °F 46.4 °F 77% 29.96 in 10.0 mi SSE 9.2 mph - N/A   Unknown
5:35 AM 53.6 °F 46.4 °F 77% 29.95 in 10.0 mi SSE 8.1 mph - N/A   Unknown
5:55 AM 53.6 °F 46.4 °F 77% 29.94 in 10.0 mi SSE 12.7 mph 18.4 mph N/A   Unknown
6:15 AM 55.4 °F 46.4 °F 72% 29.94 in 10.0 mi SSE 12.7 mph 18.4 mph N/A   Unknown
6:35 AM 55.4 °F 46.4 °F 72% 29.95 in 10.0 mi SSE 10.4 mph 16.1 mph N/A   Unknown
6:55 AM 55.4 °F 46.4 °F 72% 29.94 in 10.0 mi South 8.1 mph - N/A   Unknown
7:15 AM 55.4 °F 46.4 °F 72% 29.96 in 10.0 mi South 6.9 mph - N/A   Unknown
7:55 AM 55.4 °F 48.2 °F 77% 29.94 in 10.0 mi SSE 10.4 mph 16.1 mph N/A   Unknown
8:15 AM 55.4 °F 48.2 °F 77% 29.93 in 10.0 mi SSE 9.2 mph - N/A   Unknown
8:35 AM 55.4 °F 48.2 °F 77% 29.94 in 4.0 mi SSE 8.1 mph 17.3 mph N/A   Unknown
8:55 AM 55.4 °F 48.2 °F 77% 29.93 in 10.0 mi South 4.6 mph - N/A   Unknown
9:15 AM 55.4 °F 51.8 °F 88% 29.94 in 7.0 mi Calm Calm - N/A   Unknown
9:35 AM 53.6 °F 51.8 °F 94% 29.94 in 10.0 mi SSW 8.1 mph - N/A   Unknown
9:55 AM 55.4 °F 51.8 °F 88% 29.93 in 10.0 mi South 4.6 mph - N/A   Unknown
10:15 AM 55.4 °F 51.8 °F 88% 29.93 in 3.0 mi South 5.8 mph - N/A   Unknown
10:35 AM 55.4 °F 51.8 °F 88% 29.92 in 10.0 mi South 9.2 mph - N/A   Unknown
10:55 AM 55.4 °F 51.8 °F 88% 29.91 in 10.0 mi South 16.1 mph - N/A   Unknown
11:15 AM 55.4 °F 51.8 °F 88% 29.92 in 4.0 mi South 16.1 mph 20.7 mph N/A   Unknown
11:35 AM 55.4 °F 53.6 °F 94% 29.89 in 4.0 mi South 12.7 mph 20.7 mph N/A   Unknown
11:55 AM 55.4 °F 53.6 °F 94% 29.89 in 7.0 mi South 19.6 mph 27.6 mph N/A   Unknown
12:15 PM 57.2 °F 53.6 °F 88% 29.88 in 2.5 mi SSW 19.6 mph 32.2 mph N/A   Unknown
12:35 PM 57.2 °F 53.6 °F 88% 29.88 in 0.8 mi SW 8.1 mph 20.7 mph N/A   Unknown
12:55 PM 55.4 °F 53.6 °F 94% 29.88 in 1.0 mi SW 8.1 mph - N/A   Unknown
1:15 PM 55.4 °F 55.4 °F 100% 29.89 in 1.0 mi SW 12.7 mph - N/A   Unknown
1:35 PM 57.2 °F 55.4 °F 94% 29.88 in 1.2 mi SW 16.1 mph 20.7 mph N/A   Unknown
1:55 PM 55.4 °F 53.6 °F 94% 29.88 in 2.5 mi SW 15.0 mph 19.6 mph N/A   Unknown
2:15 PM 55.4 °F 55.4 °F 100% 29.88 in 1.2 mi SW 17.3 mph 25.3 mph N/A   Unknown
2:35 PM 55.4 °F 55.4 °F 100% 29.88 in 10.0 mi SW 13.8 mph 20.7 mph N/A   Unknown
2:55 PM 57.2 °F 55.4 °F 94% 29.88 in 10.0 mi SW 16.1 mph 21.9 mph N/A   Unknown
3:15 PM 57.2 °F 55.4 °F 94% 29.88 in 10.0 mi SW 18.4 mph 25.3 mph N/A   Unknown
3:35 PM 57.2 °F 51.8 °F 82% 29.89 in 10.0 mi SW 21.9 mph 32.2 mph N/A   Unknown
3:55 PM 57.2 °F 51.8 °F 82% 29.90 in 10.0 mi SW 20.7 mph 27.6 mph N/A   Unknown
4:15 PM 57.2 °F 50.0 °F 77% 29.90 in 10.0 mi SW 15.0 mph 23.0 mph N/A   Unknown
4:35 PM 55.4 °F 48.2 °F 77% 29.91 in 10.0 mi SW 17.3 mph 21.9 mph N/A   Unknown
4:55 PM 55.4 °F 46.4 °F 72% 29.92 in 10.0 mi SW 12.7 mph 20.7 mph N/A   Unknown
5:15 PM 55.4 °F 46.4 °F 72% 29.93 in 10.0 mi SW 11.5 mph - N/A   Unknown
5:35 PM 55.4 °F 46.4 °F 72% 29.94 in 10.0 mi SW 11.5 mph - N/A   Unknown
5:55 PM 55.4 °F 46.4 °F 72% 29.95 in 10.0 mi SW 9.2 mph - N/A   Unknown
6:15 PM 53.6 °F 46.4 °F 77% 29.96 in 10.0 mi SW 8.1 mph - N/A   Unknown
6:35 PM 53.6 °F 46.4 °F 77% 29.96 in 10.0 mi Calm Calm - N/A   Unknown
6:55 PM 51.8 °F 46.4 °F 82% 29.97 in 10.0 mi SW 3.5 mph - N/A   Unknown
7:15 PM 51.8 °F 46.4 °F 82% 29.98 in 10.0 mi Calm Calm - N/A   Unknown
7:35 PM 51.8 °F 46.4 °F 82% 29.99 in 10.0 mi Calm Calm - N/A   Unknown
7:55 PM 51.8 °F 46.4 °F 82% 29.99 in 10.0 mi Calm Calm - N/A   Unknown
8:15 PM 53.6 °F 46.4 °F 77% 30.00 in 10.0 mi Calm Calm - N/A   Unknown
8:35 PM 51.8 °F 46.4 °F 82% 30.00 in 10.0 mi South 3.5 mph - N/A   Unknown
8:55 PM 51.8 °F 46.4 °F 82% 30.01 in 10.0 mi South 4.6 mph - N/A   Unknown
9:15 PM 51.8 °F 46.4 °F 82% 30.01 in 10.0 mi SW 4.6 mph - N/A   Unknown
9:35 PM 51.8 °F 48.2 °F 88% 30.02 in 10.0 mi WSW 3.5 mph - N/A   Unknown
9:55 PM 50.0 °F 46.4 °F 87% 30.02 in 10.0 mi WSW 4.6 mph - N/A   Unknown
10:15 PM 48.2 °F 46.4 °F 93% 30.02 in 10.0 mi SSW 3.5 mph - N/A   Unknown
10:35 PM 48.2 °F 46.4 °F 93% 30.02 in 4.0 mi SW 4.6 mph - N/A   Unknown
10:55 PM 48.2 °F 46.4 °F 93% 30.02 in 1.5 mi SSW 4.6 mph - N/A   Unknown
11:15 PM 48.2 °F 46.4 °F 93% 30.02 in 0.5 mi SW 3.5 mph - N/A   Unknown
11:35 PM 48.2 °F 46.4 °F 93% 30.03 in 2.0 mi Calm Calm - N/A   Unknown
11:55 PM 48.2 °F 48.2 °F 100% 30.03 in 10.0 mi Calm Calm - N/A   Unknown